Location: Kellogg
(38.0159°N, 90.0546°W)
Time: 22:26:17
(UTC+00:00)

SR - Pass Details

Date: 16 September 2024
Orbit: 578 x 855 km, 66.7° (Epoch: 09 October)

Event Time Altitude Azimuth Distance (km) Brightness Sun altitude
Rises 04:38:21 0° 324° (NW) 2,984 ? -45.8°
Enters shadow 04:39:25 - 321° (NW) 2,572 ? -45.9°
Reaches altitude 10° 04:40:39 10° 317° (NW) 2,111 - -46.0°
Maximum altitude 04:45:10 42° 247° (WSW) 1,006 - -46.4°
Drops below altitude 10° 04:50:02 10° 177° (S) 2,272 - -46.8°
Sets 04:52:37 0° 171° (S) 3,240 - -47.0°
